sat.trackr.live / text

‹ back to catalog

BANDWAGON-4 OBJECT N

NORAD 66305 · 2025-248N

PAYLOAD ACTIVE UNKNOWN

§ Identity

Operator
Country
TBD
Launch date
2025-11-02
Launch site
AFETR
Launch vehicle
Mass (kg)
RCS (m²)

External: N2YO · Heavens-Above · Gunter

§ Orbital elements

Epoch: 2026-09-20T10:00:48.710016Z

Period
94.07 min
Inclination
45.4232°
Eccentricity
0.0009039
Mean motion
15.30712323 rev/d
Perigee alt
467.5 km
Apogee alt
479.9 km
Semi-major
6,851.8 km
B*
4.1381e-4
RAAN
316.0181°
Arg perigee
248.0940°
Mean anomaly
111.8990°
Rev number
4,705

§ Raw data

BANDWAGON-4 OBJECT N1 66305U 25248N   26263.41723044  .00012238  00000+0  41381-3 0  99902 66305  45.4232 316.0181 0009039 248.0940 111.8990 15.30712323 47052

JSON: /api/v1/satellites/66305 · /tle

For live sub-satellite position, see the globe view (requires WebGL).

§ Visibility from observer

Set your observer location to see the next 7 days of passes ≥ 10°. The values pass through the URL so the page stays shareable.

No JS? Fill the form by hand. The geolocation button needs JavaScript.